Wink, TX

6:38 AM CST on December 12, 2017 (GMT -0600)
Winkler County

Weather History for KINK - January, 2013

Change the Weather History Date:

Sunday, January 6, 2013

  Actual Average Record
Temperature  
Mean Temperature 38 °F -  
Max Temperature 50 °F 59 °F 81 °F (2008)
Min Temperature 25 °F 27 °F 7 °F (1971)
Degree Days  
Heating Degree Days 28    
Moisture  
Dew Point 24 °F    
Average Humidity 64    
Maximum Humidity 92    
Minimum Humidity 33    
Precipitation  
Precipitation 0.00 in - - ()
Sea Level Pressure  
Sea Level Pressure 30.35 in    
Wind  
Wind Speed 6 mph (NE)    
Max Wind Speed 8 mph    
Max Gust Speed -    
Visibility 10 miles    
Events      
Averages and records for this station are not official NWS values.
T = Trace of Precipitation, MM = Missing Value Source: NWS Daily Summary

Daily Weather History Graph

Daily Weather History Graph

Search for Another Location

Airport or City:

Trip Planner

Search our weather history database for the weather conditions in past years. The results will help you decide how hot, cold, wet, or windy it might be!

Date:

Astronomy

Jan. 06, 2013 Rise Set
Actual Time 7:53 AM CST 6:04 PM CST
Civil Twilight 7:26 AM CST 6:30 PM CST
Nautical Twilight 6:56 AM CST 7:01 PM CST
Astronomical Twilight 6:27 AM CST 7:30 PM CST
Moon 2:18 AM CST (1/6) 1:26 PM CST (1/6)
Length of Visible Light 11h 03m
Length of Day
10h 10m
Waning Crescent, 33% of the Moon is Illuminated
Jan 6
Waning Crescent
Jan 11
New
Jan 18
First Quarter
Jan 26
Full
Feb 3
Last Quarter

Hourly Weather History & Observations

Time (CST) Temp. Windchill Dew Point Humidity Pressure Visibility Wind Dir Wind Speed Gust Speed Precip Events Conditions
12:53 AM 28.9 °F 21.9 °F 27.0 °F 92% 30.34 in 10.0 mi NNW 6.9 mph - N/A   Clear
1:53 AM 28.9 °F 21.1 °F 26.1 °F 89% 30.34 in 10.0 mi North 8.1 mph - N/A   Clear
2:53 AM 28.9 °F 21.1 °F 25.0 °F 85% 30.35 in 10.0 mi North 8.1 mph - N/A   Clear
3:53 AM 28.9 °F 21.1 °F 24.1 °F 82% 30.35 in 10.0 mi North 8.1 mph - N/A   Clear
4:53 AM 28.0 °F 20.0 °F 23.0 °F 81% 30.37 in 10.0 mi North 8.1 mph - N/A   Clear
5:53 AM 27.0 °F 18.7 °F 23.0 °F 85% 30.38 in 10.0 mi North 8.1 mph - N/A   Clear
6:53 AM 25.0 °F 16.3 °F 21.9 °F 88% 30.41 in 10.0 mi NNW 8.1 mph - N/A   Clear
7:53 AM 25.0 °F 18.1 °F 21.9 °F 88% 30.44 in 10.0 mi NNW 5.8 mph - N/A   Clear
8:53 AM 30.0 °F 25.2 °F 24.1 °F 79% 30.46 in 10.0 mi NW 4.6 mph - N/A   Clear
9:53 AM 35.1 °F 31.0 °F 24.1 °F 64% 30.47 in 10.0 mi North 4.6 mph - N/A   Clear
10:53 AM 37.9 °F - 23.0 °F 55% 30.47 in 10.0 mi Calm Calm - N/A   Clear
11:53 AM 41.0 °F 38.0 °F 23.0 °F 49% 30.44 in 10.0 mi East 4.6 mph - N/A   Clear
12:53 PM 44.1 °F 42.5 °F 24.1 °F 45% 30.40 in 10.0 mi Variable 3.5 mph - N/A   Clear
1:53 PM 46.0 °F 43.9 °F 23.0 °F 40% 30.34 in 10.0 mi SW 4.6 mph - N/A   Clear
2:53 PM 48.0 °F - 21.9 °F 36% 30.31 in 10.0 mi Calm Calm - N/A   Clear
3:53 PM 50.0 °F - 23.0 °F 35% 30.28 in 10.0 mi SSE 4.6 mph - N/A   Clear
4:53 PM 50.0 °F - 21.9 °F 33% 30.27 in 10.0 mi SE 6.9 mph - N/A   Clear
5:53 PM 45.0 °F 42.6 °F 25.0 °F 46% 30.28 in 10.0 mi SE 4.6 mph - N/A   Clear
6:53 PM 42.1 °F 38.4 °F 24.1 °F 49% 30.29 in 10.0 mi ESE 5.8 mph - N/A   Clear
7:53 PM 37.9 °F 32.1 °F 25.0 °F 60% 30.29 in 10.0 mi East 8.1 mph - N/A   Clear
8:53 PM 37.9 °F 35.5 °F 23.0 °F 55% 30.29 in 10.0 mi SE 3.5 mph - N/A   Clear
9:53 PM 35.1 °F 31.0 °F 24.1 °F 64% 30.27 in 10.0 mi ESE 4.6 mph - N/A   Clear
10:53 PM 34.0 °F 31.0 °F 24.1 °F 67% 30.25 in 10.0 mi ESE 3.5 mph - N/A   Clear
11:53 PM 33.1 °F - 24.1 °F 70% 30.23 in 10.0 mi Calm Calm - N/A   Clear